Statesboro, GA (30458)

7:54 PM EST on February 11, 2016 (GMT -0500)
Savannah Avenue | | Change Station
CLOSE
Current Station
Personal Weather Station
Location: Statesboro, GA
Elevation: 253 ft
Nearby Weather Stations
Active Advisory: Flood Warning

Elev 253 ft 32.44 °N, 81.78 °W | Updated 14 seconds ago

Clear
Clear
51.4 °F
Feels Like 51.4 °F
N
0.0
Wind Variable Wind from SSE
Gusts 0.0 mph

Today
High -- | Low -- °F
--% Chance of Precip.
Yesterday
High -- | Low -- °F
Precip. -- in
Pressure 30.18 in
Visibility 10.0 miles
Clouds Clear
Dew Point 40 °F
Humidity 64%
Rainfall 0.02 in
Snow Depth Not available.
7:14 AM 6:09 PM
Waxing Crescent, 16% visible
METAR KTBR 120035Z AUTO 11003KT 10SM CLR 12/00 A3018 RMK AO2 T01160002
Pressure 30.18 in
Visibility 10.0 miles
Clouds Clear
Dew Point 40 °F
Humidity 64%
Rainfall 0.02 in
Snow Depth Not available.
7:14 AM 6:09 PM
Waxing Crescent, 16% visible
METAR KTBR 120035Z AUTO 11003KT 10SM CLR 12/00 A3018 RMK AO2 T01160002

10-Day Weather Forecast

Almanac

Astronomy

Feb. 11, 2016 Rise Set
Actual Time
Civil Twilight
Nautical Twilight
Astronomical Twilight
Moon
Length of Visible Light
Length of Day
Tomorrow will be .
, % of the Moon is Illuminated

Today's Extremes

State Highs State Lows

Community

WunderPhotos

Upload Photos

1,892,195 photos uploaded!

WunderBlog® & News

Nearby

Air Quality

  Air Quality AQ Index Pollutant
Not available.

Snow Depth

Station Depth Elevation

Earthquake Activity

City Distance Mag. Time & Date
Minimum magnitude displayed is 2.5.

Coastal Water Temperatures

Place Temperature

Stations

Nearby Weather Stations

Station Location Temp. Windchill Dew Point Humidity Wind Precip. Elev Updated Type
                   

Watches & Warnings

Flood Warning
Issued: 10:20 AM EST Feb. 11, 2016 – National Weather Service

The Flood Warning continues for
the Ogeechee river near Eden.
* At 9 am Thursday the stage was 12.9 feet.
* Flood stage is 11.0 feet.
* Minor flooding is occurring.
* Forecast, the river will continue to fall.
* At 12.0 feet, water encroaches on some homes along dashers Landing
Road and Yarbrough Landing Road. Davis Landing Road also becomes
impassable.


Lat... Lon 3246 8160 3252 8152 3227 8140 3208 8133
          3206 8143 3223 8150